Concord, CA

11:01 PM PST on February 13, 2016 (GMT -0800)
Buchanan

Weather History for KCCR - February, 2014

Change the Weather History Date:

Thursday, February 27, 2014

  Actual Average Record
Temperature  
Mean Temperature 60 °F 54 °F  
Max Temperature 66 °F 64 °F 74 °F (2002)
Min Temperature 53 °F 44 °F 32 °F (2011)
Degree Days  
Heating Degree Days 5    
Month to date heating degree days 307  
Since 1 July heating degree days 1738  
Cooling Degree Days 0    
Month to date cooling degree days 0  
Year to date cooling degree days 0  
Growing Degree Days 8 (Base 50)    
Moisture  
Dew Point 49 °F    
Average Humidity 71    
Maximum Humidity 93    
Minimum Humidity 48    
Precipitation  
Precipitation 0.04 in - 0.43 in (2006)
Month to date precipitation 3.44  
Year to date precipitation 3.54  
Since 1 July precipitation 6.02  
Sea Level Pressure  
Sea Level Pressure 29.75 in    
Wind  
Wind Speed 8 mph (South)    
Max Wind Speed 16 mph    
Max Gust Speed 23 mph    
Visibility 9 miles    
Events Rain    
T = Trace of Precipitation, MM = Missing Value Source: NWS Daily Summary

Daily Weather History Graph

Daily Weather History Graph

Search for Another Location

Airport or City:

Trip Planner

Search our weather history database for the weather conditions in past years. The results will help you decide how hot, cold, wet, or windy it might be!

Date:

Astronomy

Feb. 27, 2014 Rise Set
Actual Time 6:42 AM PST 5:59 PM PST
Civil Twilight 6:16 AM PST 6:26 PM PST
Nautical Twilight 5:45 AM PST 6:56 PM PST
Astronomical Twilight 5:15 AM PST 7:27 PM PST
Moon 5:17 AM PST (2/27) 4:32 PM PST (2/27)
Length of Visible Light 12h 10m
Length of Day
11h 17m
Waning Crescent, 3% of the Moon is Illuminated
Feb 27
Waning Crescent
Mar 1
New
Mar 8
First Quarter
Mar 16
Full
Mar 23
Last Quarter

Hourly Weather History & Observations

Time (PST) Temp. Dew Point Humidity Pressure Visibility Wind Dir Wind Speed Gust Speed Precip Events Conditions
12:05 AM 55.9 °F 51.1 °F 84% 29.75 in 7.0 mi SW 11.5 mph 19.6 mph 0.01 in Rain Light Rain
12:24 AM 55.9 °F 52.0 °F 87% 29.76 in 10.0 mi Variable 5.8 mph - 0.01 in   Overcast
12:32 AM 55.9 °F 50.0 °F 80% 29.76 in 10.0 mi SW 13.8 mph 18.4 mph 0.01 in   Mostly Cloudy
12:53 AM 55.0 °F 50.0 °F 83% 29.73 in 10.0 mi SSW 8.1 mph - 0.01 in   Mostly Cloudy
1:53 AM 55.0 °F 48.9 °F 80% 29.75 in 10.0 mi SW 12.7 mph - N/A   Scattered Clouds
2:53 AM 55.0 °F 48.9 °F 80% 29.76 in 10.0 mi SSW 6.9 mph - N/A   Mostly Cloudy
4:53 AM 54.0 °F 48.9 °F 83% 29.78 in 10.0 mi SSW 10.4 mph - N/A   Mostly Cloudy
5:53 AM 54.0 °F 50.0 °F 86% 29.80 in 10.0 mi South 8.1 mph - 0.00 in   Overcast
6:53 AM 54.0 °F 50.0 °F 86% 29.81 in 10.0 mi South 9.2 mph - N/A   Overcast
7:23 AM 54.0 °F 51.1 °F 90% 29.87 in 1.0 mi SW 9.2 mph - 0.02 in Rain Rain
7:33 AM 53.1 °F 52.0 °F 96% 29.87 in 3.0 mi South 6.9 mph - 0.03 in Rain Light Rain
7:53 AM 54.0 °F 52.0 °F 93% 29.83 in 7.0 mi South 8.1 mph - 0.03 in   Mostly Cloudy
8:53 AM 55.0 °F 52.0 °F 89% 29.85 in 10.0 mi South 8.1 mph - N/A   Mostly Cloudy
9:53 AM 55.9 °F 52.0 °F 87% 29.86 in 10.0 mi SSE 9.2 mph - N/A   Mostly Cloudy
10:53 AM 59.0 °F 51.1 °F 75% 29.85 in 10.0 mi SSW 8.1 mph 18.4 mph N/A   Mostly Cloudy
11:53 AM 60.1 °F 48.0 °F 64% 29.85 in 10.0 mi South 8.1 mph - N/A   Mostly Cloudy
12:53 PM 63.0 °F 48.9 °F 60% 29.85 in 10.0 mi SSW 12.7 mph - N/A   Mostly Cloudy
1:53 PM 63.0 °F 48.9 °F 60% 29.83 in 10.0 mi Variable 5.8 mph - N/A   Mostly Cloudy
2:53 PM 64.9 °F 48.0 °F 54% 29.81 in 10.0 mi South 8.1 mph - N/A   Mostly Cloudy
3:53 PM 64.0 °F 45.0 °F 50% 29.78 in 10.0 mi South 10.4 mph - N/A   Mostly Cloudy
4:53 PM 63.0 °F 45.0 °F 52% 29.74 in 10.0 mi South 5.8 mph - N/A   Overcast
5:53 PM 59.0 °F 52.0 °F 78% 29.69 in 10.0 mi NNE 6.9 mph - N/A   Overcast
6:53 PM 61.0 °F 46.0 °F 58% 29.65 in 10.0 mi ESE 9.2 mph 17.3 mph N/A   Overcast
7:53 PM 60.1 °F 46.9 °F 62% 29.63 in 10.0 mi South 4.6 mph - N/A   Clear
8:53 PM 57.9 °F 46.9 °F 67% 29.60 in 10.0 mi NNW 4.6 mph - N/A   Clear
9:53 PM 55.0 °F 46.9 °F 74% 29.58 in 10.0 mi NNE 3.5 mph - N/A   Clear
10:53 PM 55.9 °F 48.0 °F 75% 29.54 in 10.0 mi ENE 6.9 mph - N/A   Mostly Cloudy
11:53 PM 55.9 °F 46.9 °F 72% 29.51 in 10.0 mi ENE 8.1 mph - N/A   Mostly Cloudy